Location: Olomouc
(49.5830°N, 17.2500°E)
Time: 10:32:20
(UTC+02:00)

ISS - Visible Passes

Search period start: 20 October 2019 00:00
Search period end: 29 October 2019 23:00
Orbit: 411 x 421 km, 51.6° (Epoch: 20 October)

Date Brightness Start Highest point End Pass type
(mag) Time Alt. Az. Time Alt. Az. Time Alt. Az.
24 Oct -1.2 06:50:14 10° SSW 06:52:52 21° SE 06:55:31 10° E visible
25 Oct -0.8 06:02:33 10° S 06:04:27 14° SE 06:06:20 10° ESE visible
26 Oct -2.6 06:48:53 10° SW 06:52:06 43° SSE 06:55:19 10° ENE visible
27 Oct -2.0 05:00:40 10° SSW 05:03:34 29° SE 05:06:33 10° E visible
28 Oct -1.6 04:14:29 19° SSE 04:15:04 20° SE 04:17:38 10° E visible
28 Oct -3.7 05:48:04 10° WSW 05:51:26 81° SSE 05:54:49 10° ENE visible
29 Oct -0.4 03:28:11 10° ESE 03:28:11 10° ESE 03:28:19 10° ESE visible
29 Oct -3.3 05:01:05 25° SW 05:02:48 59° SSE 05:06:08 10° ENE visible
